sat.trackr.live / text

‹ back to catalog

BEIDOU-3 M15 (C34)

NORAD 43648 · 2018-078B

PAYLOAD ACTIVE UNKNOWN

§ Identity

Operator
Country
PRC
Launch date
2018-10-15
Launch site
XICLF
Launch vehicle
Mass (kg)
RCS (m²)

Purposes: nav

External: N2YO · Heavens-Above · Gunter

§ Orbital elements

Epoch: 2026-05-24T12:33:28.778400Z

Period
773.23 min
Inclination
54.1090°
Eccentricity
0.0004901
Mean motion
1.86232087 rev/d
Perigee alt
21,514.3 km
Apogee alt
21,541.6 km
Semi-major
27,906.1 km
B*
0.0000e+0
RAAN
300.8151°
Arg perigee
55.3624°
Mean anomaly
304.6614°
Rev number
5,173

§ Raw data

BEIDOU-3 M15 (C34)1 43648U 18078B   26144.52324975 -.00000084  00000+0  00000+0 0  99942 43648  54.1090 300.8151 0004901  55.3624 304.6614  1.86232087 51730

JSON: /api/v1/satellites/43648 · /tle

For live sub-satellite position, see the globe view (requires WebGL).

§ Visibility from observer

Set your observer location to see the next 7 days of passes ≥ 10°. The values pass through the URL so the page stays shareable.

No JS? Fill the form by hand. The geolocation button needs JavaScript.